Time,TemperatureF,DewpointF,PressureIn,WindDirection,WindDirectionDegrees,WindSpeedMPH,WindSpeedGustMPH,Humidity,HourlyPrecipIn,Conditions,Clouds,dailyrainin,SoftwareType,DateUTC
2013-05-24 00:00:00,41.0,28.3,24.05,North,0,0.0,-999.0,60,0.00,,,0.00,,2013-05-24 07:00:00,
2013-05-24 01:00:00,40.5,28.1,24.04,North,0,0.0,-999.0,61,0.00,,,0.00,,2013-05-24 08:00:00,
2013-05-24 02:00:00,41.0,28.3,24.04,North,0,0.0,-999.0,60,0.00,,,0.00,,2013-05-24 09:00:00,
2013-05-24 03:00:00,39.1,27.5,24.04,North,0,0.0,-999.0,63,0.00,,,0.00,,2013-05-24 10:00:00,
2013-05-24 04:00:00,37.6,26.6,24.03,North,0,0.0,-999.0,64,0.00,,,0.00,,2013-05-24 11:00:00,
2013-05-24 05:00:00,39.4,26.6,24.04,North,0,0.0,-999.0,60,0.00,,,0.00,,2013-05-24 12:00:00,
2013-05-24 06:00:00,37.8,26.3,24.04,North,0,0.0,-999.0,63,0.00,,,0.00,,2013-05-24 13:00:00,
2013-05-24 07:05:00,39.2,27.6,24.04,North,0,0.0,-999.0,63,0.00,,,0.00,,2013-05-24 14:05:00,
2013-05-24 08:05:00,42.3,30.2,0.00,North,0,0.0,-999.0,62,0.00,,,0.00,,2013-05-24 15:05:00,
2013-05-24 09:05:00,58.7,33.0,0.00,North,0,0.0,-999.0,38,0.00,,,0.00,,2013-05-24 16:05:00,
2013-05-24 10:05:00,62.3,32.6,0.00,North,0,0.0,-999.0,33,0.00,,,0.00,,2013-05-24 17:05:00,
2013-05-24 11:05:00,59.8,31.9,0.00,North,0,0.0,-999.0,35,0.00,,,0.00,,2013-05-24 18:05:00,
2013-05-24 12:00:00,63.9,25.0,24.08,North,0,0.0,-999.0,23,0.00,,,0.00,,2013-05-24 19:00:00,
2013-05-24 13:05:00,64.1,33.5,0.00,North,0,0.0,-999.0,32,0.00,,,0.00,,2013-05-24 20:05:00,
2013-05-24 14:05:00,64.1,34.2,0.00,North,0,0.0,-999.0,33,0.00,,,0.00,,2013-05-24 21:05:00,
2013-05-24 15:05:00,62.3,34.0,0.00,North,0,0.0,-999.0,35,0.00,,,0.00,,2013-05-24 22:05:00,
2013-05-24 16:05:00,60.8,34.2,0.00,North,0,0.0,-999.0,37,0.00,,,0.00,,2013-05-24 23:05:00,
2013-05-24 17:05:00,59.6,34.6,0.00,North,0,0.0,-999.0,39,0.00,,,0.00,,2013-05-25 00:05:00,
2013-05-24 18:00:00,57.2,33.7,24.06,North,0,0.0,-999.0,41,0.00,,,0.00,,2013-05-25 01:00:00,
2013-05-24 19:00:00,53.8,32.9,24.06,North,0,0.0,-999.0,45,0.00,,,0.00,,2013-05-25 02:00:00,
2013-05-24 20:00:00,50.9,32.5,24.06,North,0,0.0,-999.0,49,0.00,,,0.00,,2013-05-25 03:00:00,
2013-05-24 21:00:00,49.1,32.2,24.06,North,0,0.0,-999.0,52,0.00,,,0.00,,2013-05-25 04:00:00,
2013-05-24 22:00:00,48.4,32.1,24.07,North,0,0.0,-999.0,53,0.00,,,0.00,,2013-05-25 05:00:00,
2013-05-24 23:00:00,49.3,32.9,24.07,North,0,0.0,-999.0,53,0.00,,,0.00,,2013-05-25 06:00:00,